Simultaneous Nadir Overpasses (SNOs) Predictions

Prediction of SNOs between GOES-16 and METOP-B Satellite Orbit:

Table of predicted SNOs for the next 14.0 days since TLE Epoch: 7/8/2023
Index Date Time (GOES-16) GOES-16 Lat,Lon METOP-B Lat,Lon Distance(km) Time Diff (sec)
1 07/09/2023 02:48:53 -0.01, -75.20 -0.94, -79.42 480.69 80
2 07/10/2023 02:25:33 -0.01, -75.20 0.16, -74.42 89.41 80
3 07/11/2023 14:44:23 0.00, -75.23 0.85, -78.98 427.72 80
4 07/12/2023 14:26:23 0.00, -75.24 -0.25, -73.98 142.69 80
5 07/14/2023 02:45:22 0.00, -75.25 -0.74, -78.58 380.03 80
6 07/15/2023 02:22:01 0.00, -75.26 0.37, -73.58 190.59 80
7 07/16/2023 14:40:52 -0.01, -75.29 0.64, -78.14 325.78 80
8 07/17/2023 14:22:51 -0.01, -75.30 -0.47, -73.15 245.32 80
9 07/19/2023 02:41:51 0.01, -75.32 -0.51, -77.75 276.10 80
10 07/20/2023 02:18:30 0.01, -75.34 0.61, -72.75 295.52 80
11 07/21/2023 14:37:19 -0.01, -75.38 0.45, -77.30 219.41 80
